GFSNW_925_temp_159.txt.gz
Temp
6 7 7 7 7 7 6 7 5 10 9 6 6 8 12 14 15 15 15 15 15 16 17 15 16 16 17 17 16 16 16 14 10 15 17 18 17 16 17 12 14 13 11 13
6 6 7 7 7 7 6 5 6 9 9 7 6 9 12 13 13 15 14 15 15 16 14 11 12 13 15 15 15 13 14 11 11 12 15 17 16 17 16 16 13 13 8 9
5 6 6 7 7 6 7 6 5 5 7 7 9 9 11 12 15 15 15 15 15 14 13 12 10 13 15 15 15 14 14 13 12 8 12 14 13 15 15 14 9 11 11 11
5 5 6 6 6 6 6 6 6 7 6 6 7 9 10 12 13 14 14 14 14 13 9 11 11 12 13 14 15 14 13 11 12 12 13 13 13 13 13 13 12 11 11 12
4 5 5 6 6 6 4 5 6 7 8 8 8 8 9 10 13 13 12 12 14 13 11 10 10 12 11 11 14 14 13 10 11 9 12 13 11 11 10 12 13 13 13 13
4 4 5 5 6 5 3 5 9 7 7 8 7 8 9 12 13 14 14 13 13 12 13 12 12 12 12 12 12 11 11 11 10 10 12 12 11 10 11 13 14 14 13 14
3 4 4 5 5 5 4 7 9 7 5 8 9 11 10 11 12 11 14 13 13 13 12 12 12 12 12 11 11 12 10 10 10 9 10 9 10 14 15 14 15 15 13 14
3 3 4 5 5 5 4 7 8 7 5 9 10 10 11 11 12 12 12 13 13 10 9 8 9 8 10 11 12 11 11 10 9 9 9 11 12 14 14 14 12 13 13 11
3 3 3 4 4 5 3 5 8 8 6 7 11 11 11 9 9 10 11 12 13 11 7 6 8 9 11 12 13 13 12 10 9 8 9 9 13 13 13 14 9 13 13 11
3 3 3 4 5 5 4 4 6 8 6 9 11 9 9 11 10 8 11 11 11 10 4 7 6 8 11 10 11 12 10 10 9 9 9 9 14 13 14 10 11 14 14 11
3 3 3 4 5 4 4 4 6 7 6 8 9 11 10 10 9 6 8 8 8 7 6 7 7 8 10 10 12 12 11 10 9 9 9 10 12 12 12 10 14 14 14 9
3 3 3 4 4 5 3 4 5 6 5 4 6 7 8 9 9 7 7 7 8 7 6 7 7 8 9 10 8 13 10 10 10 10 9 11 11 10 11 12 12 14 11 9
3 3 3 4 4 3 3 4 5 5 4 4 5 7 10 9 9 9 6 7 8 7 7 7 7 7 8 7 9 9 10 11 10 10 11 12 11 11 11 14 14 13 10 9
3 3 4 4 4 4 4 4 4 5 5 2 5 9 8 10 9 9 9 8 9 8 6 6 6 7 9 8 9 9 10 10 9 8 8 10 10 11 12 14 13 12 11 9
3 3 4 4 3 3 4 4 5 5 5 5 5 8 10 10 9 9 9 8 7 5 5 5 6 7 8 8 8 8 11 10 9 9 10 11 10 11 12 11 12 11 10 10
4 4 4 3 4 4 4 3 4 4 5 4 2 7 9 10 10 9 8 7 6 5 5 6 6 7 7 5 6 11 11 11 11 10 10 11 12 12 13 11 11 10 10 9
4 5 3 4 4 4 4 3 4 4 4 3 3 4 8 10 9 7 6 7 5 6 6 5 6 7 7 6 7 10 11 12 12 11 11 11 12 10 12 10 10 11 10 10
4 4 4 4 4 4 4 4 4 4 4 4 3 4 7 8 6 6 4 5 5 5 5 4 6 7 6 7 8 9 10 11 11 11 11 12 11 10 9 9 9 8 7 7
4 3 3 4 4 2 3 4 4 4 4 3 3 4 4 6 5 4 4 4 5 5 5 5 6 6 6 8 9 9 10 11 11 11 11 11 10 10 9 9 8 7 6 5
3 4 2 2 2 3 4 3 3 3 3 3 4 5 4 5 4 5 4 3 5 6 5 6 6 6 8 9 9 10 11 11 10 9 10 10 10 9 9 8 7 6 5 5
3 2 2 2 3 3 2 3 3 3 3 3 4 5 5 6 5 5 4 5 5 7 7 7 6 6 9 10 10 11 10 10 10 11 10 10 9 7 6 6 5 5 5 4
4 3 3 2 3 3 4 3 4 5 5 4 4 4 7 5 7 6 6 6 5 8 7 7 5 6 10 10 10 9 9 9 10 10 9 8 7 7 5 4 3 3 3 3
4 3 2 3 3 3 3 4 5 4 4 5 5 5 4 5 5 4 5 6 5 6 4 5 5 6 7 9 8 8 8 8 8 8 6 5 4 6 4 1 2 2 2 2
3 3 3 3 4 3 4 5 5 4 4 6 5 4 6 5 4 5 6 6 5 5 5 7 4 4 4 7 6 5 3 2 2 1 1 -0 -1 -1 1 2 2 2 -0 0
3 3 4 3 3 4 3 3 3 4 5 5 5 4 5 5 5 5 5 5 5 6 6 5 2 3 3 4 3 1 1 0 0 0 -1 -2 -2 -2 -2 -1 1 1 -0 -0
2 3 3 2 3 3 3 3 3 4 5 5 4 5 5 5 5 6 6 7 6 6 4 3 4 2 2 2 2 1 1 1 -0 -1 -1 -2 -2 -2 -2 -2 -1 -1 -1 -1
3 3 2 1 3 3 3 3 3 5 4 5 4 6 7 6 6 7 5 5 4 3 2 2 1 2 1 1 1 1 1 0 -0 -1 -1 -1 -1 -1 -2 -3 -2 -2 -2 -2

GFSNW_925_temp_162.txt.gz
Temp
5 6 6 6 7 6 6 5 5 9 9 7 6 7 9 11 13 15 14 14 14 14 14 14 15 15 15 14 15 15 14 12 10 14 16 17 16 15 15 10 13 12 10 12
4 5 6 6 7 6 6 4 4 7 8 6 5 7 10 10 11 12 14 14 14 15 13 11 11 13 14 14 14 13 14 10 11 12 12 14 14 15 14 13 11 11 7 8
4 4 5 6 6 6 6 5 5 5 6 8 7 7 9 10 12 12 13 13 13 13 12 11 9 12 14 13 13 14 13 11 11 10 11 11 11 12 13 13 7 9 9 11
3 4 5 5 5 6 5 5 5 6 6 7 7 8 9 9 10 13 13 12 12 12 9 11 11 12 12 13 14 13 12 10 11 11 11 12 11 11 12 11 11 10 10 11
3 3 4 5 5 6 4 3 5 5 6 7 7 7 8 9 10 11 12 12 13 12 10 10 10 11 11 10 12 12 11 10 9 3 10 11 10 9 9 11 12 11 11 11
3 3 3 4 5 5 1 2 5 7 6 7 6 7 8 9 10 11 13 12 12 11 12 11 11 10 11 11 11 10 11 10 9 10 11 10 9 10 11 12 12 12 11 12
2 3 3 4 4 4 2 4 6 6 6 7 7 9 9 9 10 10 12 12 11 12 11 11 11 11 11 10 10 11 10 9 8 7 9 7 10 12 12 12 12 13 13 12
2 3 3 3 4 5 3 3 5 5 4 7 8 8 9 10 10 9 11 12 11 9 9 7 9 8 9 10 11 11 11 9 7 7 8 10 11 12 13 12 12 12 12 11
2 2 3 3 4 4 4 3 4 5 5 6 10 9 9 7 7 9 10 12 9 8 6 6 8 8 10 10 12 12 10 10 8 6 9 8 10 13 12 13 9 11 11 10
2 2 2 3 3 4 4 3 4 5 5 7 8 7 8 8 8 7 10 11 10 8 3 5 7 8 11 9 10 11 8 7 8 8 9 9 11 12 13 11 10 12 11 10
2 2 2 3 3 3 3 3 4 5 5 6 6 7 8 8 6 6 7 7 6 4 4 5 6 7 8 9 11 11 9 8 7 8 9 9 12 11 11 10 12 13 12 10
2 2 2 3 3 3 4 4 3 4 5 5 6 7 8 9 9 6 6 7 6 6 5 6 7 7 7 8 7 11 9 9 9 9 9 10 11 11 11 11 12 13 10 8
1 2 2 3 3 3 3 3 3 4 4 4 4 7 8 9 10 10 5 5 7 7 7 7 6 6 7 7 7 9 10 9 7 7 9 10 9 10 11 10 12 12 9 7
1 2 2 3 3 3 3 4 4 4 4 4 5 8 8 9 9 9 10 8 7 6 6 6 6 7 7 6 7 6 9 10 8 8 8 9 9 9 11 11 11 9 8 7
2 2 2 3 3 4 3 4 4 5 5 4 4 6 9 9 9 9 9 8 5 4 4 3 4 6 6 6 7 6 9 8 8 9 9 9 9 10 10 9 10 9 8 7
2 2 2 3 4 4 3 2 4 5 6 3 2 5 6 9 9 7 6 5 4 4 3 4 4 6 6 5 4 8 10 9 10 9 9 9 9 9 9 9 9 9 8 7
2 2 3 4 4 4 3 4 4 5 6 3 2 3 5 8 7 5 5 5 4 4 5 5 5 5 6 6 7 9 10 10 10 9 9 10 10 10 10 9 9 9 8 7
2 2 3 3 3 3 3 3 4 5 4 3 2 2 4 6 4 3 3 4 4 5 5 5 5 5 5 5 8 9 9 9 9 9 9 9 9 8 8 8 7 7 6 5
3 3 2 3 3 2 4 3 4 5 4 3 3 2 3 4 4 4 4 5 5 4 5 5 5 5 5 7 7 7 8 8 9 10 9 10 9 8 8 8 6 5 5 4
3 3 2 2 3 3 4 3 3 3 3 3 4 4 3 5 4 4 4 4 4 5 5 5 5 5 8 8 8 8 8 9 9 8 8 8 8 7 7 8 6 5 4 3
3 2 2 3 3 3 2 2 3 2 3 3 4 3 3 4 4 5 3 5 5 6 6 6 6 6 6 8 8 9 8 8 9 9 9 9 9 7 6 5 4 4 4 3
3 3 3 3 2 2 3 -0 2 3 4 2 2 2 4 3 4 5 4 6 5 7 5 6 6 6 8 8 8 7 7 7 8 9 8 7 6 6 5 4 3 3 4 4
5 3 2 1 2 2 4 3 4 4 1 1 2 5 3 4 4 4 5 6 6 5 5 5 5 4 5 6 6 5 5 5 5 5 5 5 4 4 3 1 2 2 2 2
0 0 2 1 2 3 2 2 2 2 2 3 4 4 4 4 5 3 5 5 5 3 3 6 4 3 3 4 4 5 3 2 2 1 1 1 1 -1 1 2 2 2 -0 -0
2 2 2 1 1 2 2 0 1 3 4 4 4 4 4 5 4 4 4 4 3 5 5 5 1 2 2 2 2 1 1 -1 -0 -1 -2 -2 -2 -2 -2 -0 1 1 0 -0
1 2 0 0 -0 1 3 2 3 2 4 3 3 5 5 5 5 5 5 6 5 4 4 3 2 2 2 1 1 0 -0 -0 -1 -1 -2 -2 -2 -2 -2 -1 -1 -0 -0 -1
3 0 -1 -0 -1 3 3 2 3 3 4 5 5 6 6 4 5 6 4 3 4 2 2 2 1 2 1 1 1 -1 -1 -1 -1 -2 -2 -2 -2 -2 -2 -4 -2 -1 -1 -1

GFSNW_925_temp_168.txt.gz
Temp
3 3 4 5 5 6 6 4 5 6 7 6 5 7 6 9 10 11 11 11 11 12 13 13 13 13 14 12 14 15 13 10 10 13 13 13 15 14 13 11 12 10 7 11
3 3 3 4 5 5 4 4 4 6 5 5 4 5 7 8 9 10 11 11 11 12 11 10 11 12 13 12 14 13 13 9 11 11 11 13 13 13 12 10 9 10 7 10
3 3 3 3 4 4 4 3 5 4 6 5 6 6 7 8 9 9 10 10 10 11 11 10 9 11 13 13 13 13 12 10 11 9 11 11 12 11 11 11 6 8 9 11
3 3 3 3 3 4 4 3 4 6 6 6 6 6 7 7 7 9 10 10 10 10 8 10 9 10 12 12 13 13 11 10 9 10 10 10 10 10 10 9 10 9 11 10
2 2 2 2 3 3 3 3 4 3 5 7 6 7 7 7 8 9 9 9 10 10 9 10 10 10 10 11 11 11 9 9 7 3 8 9 8 7 7 9 10 9 10 10
2 2 2 2 3 3 3 1 2 4 5 5 6 7 7 8 9 9 9 10 9 8 9 9 10 9 10 11 10 9 9 9 8 9 9 9 9 6 9 10 9 10 9 10
2 2 2 2 3 3 3 1 3 4 5 5 6 7 8 8 9 8 9 9 8 10 9 10 10 9 9 9 9 10 9 8 8 7 9 7 9 10 10 9 9 9 10 10
2 2 2 2 2 3 2 3 3 2 4 5 6 7 8 7 8 6 7 8 9 8 8 7 9 8 9 9 9 9 9 9 7 8 9 10 10 11 10 9 10 10 10 9
2 2 2 2 2 2 2 3 3 2 3 5 6 6 6 5 5 5 6 8 8 6 5 6 7 8 10 10 10 9 9 8 9 6 8 7 9 11 12 11 10 11 10 9
1 1 1 1 2 2 2 2 3 3 3 4 6 6 6 5 5 4 6 7 6 5 4 6 7 7 10 9 9 10 7 6 7 8 8 8 10 9 11 10 9 9 11 10
1 1 1 1 1 2 2 2 3 3 3 4 5 6 5 5 4 5 6 5 5 4 6 6 6 7 8 8 9 10 8 6 7 7 7 7 9 9 10 8 7 8 9 10
1 1 1 1 1 1 2 1 2 3 3 3 3 4 6 6 7 5 4 6 5 4 4 3 5 6 6 7 6 9 7 8 7 6 8 9 9 8 9 8 8 8 8 10
1 1 1 1 1 1 2 1 2 3 2 2 3 4 6 6 7 7 5 4 5 5 5 5 5 6 6 6 6 8 8 8 7 7 8 7 8 9 8 8 7 8 7 8
1 1 1 1 1 2 2 1 2 3 2 3 4 5 5 6 7 8 8 6 5 5 5 6 6 6 5 7 7 6 8 7 7 6 7 8 8 9 9 9 8 8 8 7
1 1 1 1 1 1 2 2 2 3 2 4 4 5 7 7 7 8 7 5 3 3 4 4 5 4 5 5 5 5 6 7 5 6 8 8 9 9 9 9 9 8 7 6
1 1 1 1 1 2 2 1 2 3 2 3 4 4 4 6 6 6 4 3 2 2 3 2 3 4 4 3 3 7 7 8 8 8 8 7 8 8 8 8 7 8 6 6
1 1 1 1 1 2 2 2 3 3 2 2 2 4 5 5 4 2 2 3 2 3 3 2 3 3 4 1 5 6 6 6 6 6 7 6 7 8 8 8 7 8 6 6
1 2 2 2 2 2 2 3 2 3 3 2 3 4 4 4 2 2 2 2 2 3 2 4 5 4 3 4 6 7 7 7 7 7 6 7 7 6 6 7 6 6 5 4
2 2 2 2 2 2 2 3 3 2 2 3 1 4 3 3 3 3 4 3 3 2 5 5 4 4 5 6 6 5 5 6 6 6 6 6 6 6 5 6 5 5 4 3
1 1 0 1 2 4 2 1 1 1 1 2 1 2 2 4 4 4 4 4 5 5 5 5 5 5 7 7 6 7 6 6 6 5 5 6 6 6 6 6 5 5 4 3
1 0 1 2 3 1 1 3 2 2 2 2 3 2 2 3 5 5 4 5 4 5 5 5 5 5 6 6 6 7 6 6 6 6 6 6 6 5 4 4 5 4 4 3
2 1 1 2 2 2 2 3 3 3 3 2 3 3 1 3 2 3 4 4 4 4 4 5 5 5 5 4 5 5 5 6 6 6 5 6 5 6 5 4 4 3 4 3
1 1 1 2 1 1 1 1 2 1 0 -0 1 3 1 3 2 1 4 4 5 4 5 5 5 5 4 3 4 5 4 5 5 4 4 4 4 5 4 3 3 3 2 1
1 2 1 2 -1 1 2 3 1 -0 2 -0 1 3 2 1 4 2 4 5 4 5 3 6 3 3 3 2 2 4 3 2 2 1 1 0 0 -2 0 2 2 2 -1 -1
2 1 -0 1 1 -0 -0 0 2 2 3 3 4 4 4 4 3 3 4 5 5 4 5 3 2 2 2 2 2 2 1 -3 -2 -1 -3 -3 -3 -4 -5 -1 1 1 -1 -1
0 1 1 2 3 2 2 2 2 1 3 3 3 4 4 5 4 5 5 6 4 4 2 1 1 3 2 2 1 0 -1 -1 -2 -2 -3 -3 -3 -3 -4 -2 -1 -1 -0 -1
1 1 0 -1 -2 -5 2 2 2 2 3 4 3 3 5 4 5 4 4 3 3 1 -1 -1 2 1 1 1 0 -1 -1 -2 -2 -2 -2 -3 -2 -2 -2 -4 -4 -2 -2 -2

GFSNW_925_temp_171.txt.gz
Temp
3 3 3 4 5 5 5 5 6 6 6 6 7 8 7 9 10 10 11 10 11 11 12 12 13 13 14 12 13 14 14 13 14 15 14 14 15 15 16 15 15 13 13 13
3 3 3 3 4 4 4 5 5 5 5 6 6 6 7 9 9 10 11 11 11 11 11 11 11 13 13 12 13 14 13 13 14 14 14 14 14 14 13 12 12 14 13 14
2 3 3 3 3 4 4 3 5 4 5 5 6 7 7 8 8 9 10 11 10 10 10 10 10 11 12 13 13 13 13 12 13 13 14 13 13 13 13 13 11 13 13 13
2 2 2 3 3 3 3 3 4 5 5 5 5 7 8 8 8 9 9 9 9 10 9 10 10 10 12 12 13 12 12 12 11 12 12 12 12 13 12 12 13 12 13 13
2 2 2 2 3 3 3 3 4 4 5 5 6 6 6 7 8 9 9 9 10 10 9 10 10 10 10 11 11 11 10 12 9 7 10 10 10 9 9 11 12 12 12 12
2 2 2 2 3 3 2 2 2 3 5 5 6 6 7 8 9 8 9 10 10 9 9 10 10 11 11 12 11 10 10 10 10 11 10 10 10 8 10 12 12 12 11 13
2 2 2 2 2 2 2 2 3 3 5 5 6 7 7 6 7 6 9 8 7 9 9 9 9 9 9 10 10 11 9 10 10 9 10 8 11 11 11 11 11 12 12 12
2 2 2 2 2 2 2 2 3 2 4 5 6 6 7 7 7 7 7 7 7 7 8 8 8 9 9 10 10 10 10 9 8 9 10 11 12 12 12 10 12 12 12 12
2 2 2 2 2 2 2 2 3 2 3 4 6 6 6 6 6 6 6 7 6 6 6 6 8 8 10 10 10 9 9 9 8 8 9 9 11 12 11 11 11 10 11 11
1 1 1 1 1 2 2 2 3 2 3 4 5 5 5 5 5 6 6 6 6 6 6 7 8 8 7 7 9 9 8 8 8 9 9 10 11 11 11 10 12 10 10 10
1 1 1 1 1 1 2 1 2 2 2 3 4 5 5 5 5 6 5 5 5 5 7 7 8 8 7 8 10 10 10 9 8 8 8 9 11 10 10 11 9 10 10 10
1 1 1 1 1 1 1 1 1 2 2 3 3 4 4 4 5 4 3 5 6 6 6 6 7 7 8 9 8 10 9 10 9 9 10 10 10 10 11 11 10 9 10 10
1 1 1 1 1 1 1 1 2 2 2 2 2 3 4 4 5 5 4 5 6 5 6 6 7 8 7 7 8 9 9 9 9 8 10 10 11 10 10 9 8 9 10 9
1 1 1 1 1 1 1 1 2 2 2 2 4 5 4 5 5 4 4 4 5 5 6 6 6 7 7 8 8 8 9 9 8 7 7 9 10 10 10 10 10 9 10 9
1 1 1 2 1 1 1 1 1 2 2 2 3 3 5 5 6 4 4 4 5 5 5 5 6 6 5 5 6 7 8 9 8 9 10 11 10 11 10 10 10 10 8 8
1 1 1 1 1 1 1 -0 2 2 2 2 3 3 4 4 4 4 4 4 4 4 5 5 5 4 6 6 6 8 9 9 10 9 10 9 9 9 9 9 10 10 8 7
1 1 1 1 1 1 2 1 2 2 2 2 3 4 4 4 2 3 4 3 4 5 5 5 5 5 6 4 6 8 8 9 9 8 7 8 8 9 10 8 9 8 8 7
1 1 1 1 1 1 2 3 1 1 2 2 3 4 4 4 3 4 3 3 4 4 5 4 5 4 5 5 8 8 9 9 8 8 8 8 9 8 8 8 7 7 7 6
2 2 1 1 1 1 2 2 2 0 1 2 3 4 5 3 3 3 4 4 4 4 5 4 5 6 5 7 8 7 8 7 8 8 7 7 7 7 8 7 7 7 6 5
1 2 0 -0 1 3 3 1 1 1 1 2 3 3 4 5 4 4 4 4 6 5 6 5 5 6 8 8 8 8 8 7 8 7 7 7 6 7 7 8 7 7 6 5
2 -1 -0 2 2 2 1 2 2 3 3 2 3 3 4 3 5 5 4 5 4 5 6 5 6 6 7 6 6 7 7 7 7 7 8 7 7 7 6 5 5 5 4 4
1 1 1 2 2 2 3 3 3 3 4 3 3 3 3 3 3 4 3 4 4 5 5 5 6 7 6 5 5 5 5 6 6 6 6 6 6 6 6 6 5 5 5 4
2 1 1 2 1 2 2 2 3 2 2 2 2 3 3 3 2 3 4 4 5 4 5 5 7 6 5 4 4 5 4 4 5 5 5 5 5 5 5 4 3 3 2 1
1 2 1 2 1 2 3 3 3 2 1 1 2 2 2 3 3 3 4 5 5 5 5 6 6 4 3 3 3 4 3 1 2 2 1 1 1 -1 0 2 2 1 -1 -1
2 2 2 2 2 2 1 2 2 2 2 2 3 4 5 4 4 4 4 5 5 6 6 6 4 3 3 3 3 2 1 -1 1 0 -2 -3 -3 -2 -4 -1 0 0 -1 -1
1 1 2 3 3 3 2 2 3 2 3 3 4 4 4 4 4 5 5 5 5 6 5 3 2 3 2 2 1 1 0 1 0 -1 -2 -3 -3 -3 -4 -3 -2 -2 -1 -2
1 1 1 0 -0 -1 2 2 2 2 3 3 4 3 4 4 5 5 6 5 6 4 2 2 2 1 1 1 1 -1 -1 -1 -1 -2 -2 -3 -3 -3 -2 -2 -4 -3 -3 -2

GFSNW_925_temp_177.txt.gz
Temp
3 3 3 4 4 5 6 8 8 7 7 8 10 10 12 14 15 16 15 15 15 15 16 17 17 17 18 20 19 18 20 19 17 19 21 22 22 21 21 18 18 20 19 18
3 3 3 3 4 4 5 8 9 6 6 8 9 12 12 13 13 14 14 14 15 16 15 14 15 16 18 18 18 18 18 17 15 17 19 20 19 20 20 20 20 18 17 18
3 3 3 3 3 3 4 6 7 7 6 8 9 10 11 12 14 13 13 13 14 14 13 13 11 14 16 17 17 14 15 15 15 14 16 15 13 16 19 19 16 16 17 18
2 2 3 3 3 3 5 5 6 9 6 6 7 8 10 11 12 14 12 11 13 12 9 11 11 13 15 16 16 15 15 12 14 15 16 17 16 15 16 16 17 16 16 17
2 2 2 3 3 3 5 5 6 6 7 8 8 8 8 9 10 11 8 10 12 12 8 10 11 13 13 14 16 15 15 12 13 12 14 15 14 15 15 16 16 16 17 17
2 2 2 2 2 3 6 6 5 4 5 9 8 8 8 9 11 8 8 7 7 8 9 11 10 11 12 13 13 13 14 13 12 12 14 14 13 13 15 16 17 17 16 18
2 2 2 2 2 2 4 5 6 6 6 8 9 10 11 10 10 8 10 10 7 10 10 10 10 10 11 12 13 14 13 13 12 11 13 10 14 17 17 17 17 18 18 18
2 2 2 2 2 2 3 3 3 5 5 8 8 9 10 11 11 10 10 9 10 10 6 7 8 10 11 12 13 14 14 14 12 10 13 14 16 17 17 16 16 18 18 18
2 2 2 2 2 2 2 4 3 3 4 7 9 9 10 9 9 9 11 12 11 8 6 7 8 10 12 13 14 16 16 15 13 12 10 11 15 16 17 17 14 18 18 16
2 2 2 2 2 2 2 4 4 2 4 7 8 8 8 8 9 8 9 9 9 8 6 7 9 11 13 12 13 12 13 13 11 12 11 13 17 17 16 13 14 15 15 16
2 1 1 1 1 1 2 3 4 2 3 6 7 7 6 8 8 7 7 7 8 6 7 8 11 11 13 12 14 13 13 12 11 11 11 11 17 17 14 16 15 15 15 15
1 1 1 1 1 1 1 2 4 4 3 5 5 5 5 6 7 7 6 6 6 7 6 7 8 10 11 11 10 15 13 15 13 11 12 12 15 15 16 16 15 14 14 14
1 1 1 1 1 1 1 2 3 3 3 5 6 6 7 7 7 7 6 7 8 7 5 5 6 8 10 9 11 14 14 15 14 14 14 15 16 16 16 16 15 15 14 12
1 1 1 1 1 1 1 2 2 2 3 3 6 7 8 8 8 7 7 8 7 7 6 5 5 6 11 12 13 13 13 13 13 13 14 15 15 15 15 14 15 15 14 13
1 1 1 1 1 1 1 2 2 2 2 3 4 6 6 7 7 8 8 7 6 6 5 5 6 8 9 12 13 13 15 14 13 12 14 14 14 15 15 15 15 14 14 14
1 1 1 1 1 1 1 1 2 2 2 2 4 8 8 8 8 8 7 8 6 5 6 6 8 9 9 11 12 14 15 15 15 14 15 15 14 15 15 14 14 14 14 14
1 1 1 1 1 1 2 3 2 4 2 2 4 7 9 7 8 6 4 3 4 5 5 6 7 7 11 11 11 13 14 15 15 15 14 13 14 14 15 14 14 14 14 13
1 1 1 1 1 1 1 2 2 3 3 5 4 6 8 7 5 5 2 4 3 4 5 7 10 12 11 9 12 14 15 15 15 14 14 14 14 14 14 14 14 14 14 14
1 1 1 1 1 1 1 1 2 1 0 4 5 5 6 5 5 4 4 4 7 7 8 10 11 10 9 11 13 13 14 13 13 14 14 14 13 14 14 14 14 14 13 14
1 1 0 1 3 3 2 1 2 1 2 4 4 7 6 7 5 6 6 7 8 8 10 11 9 10 12 13 14 14 12 12 12 12 12 12 12 13 13 13 13 14 14 13
2 2 3 3 3 4 4 3 3 4 3 4 5 7 6 5 6 6 8 7 8 8 10 9 10 11 13 13 12 10 10 10 11 13 13 13 13 12 12 12 12 12 13 12
3 3 2 2 3 3 3 4 5 5 6 7 7 9 9 6 8 7 7 7 6 7 9 8 9 12 12 10 7 5 5 9 10 11 11 11 12 12 12 11 10 10 7 4
3 4 2 3 3 3 3 4 5 5 7 6 6 6 8 7 8 7 7 5 6 10 7 9 12 11 10 7 4 4 7 8 9 9 9 10 10 10 10 8 7 5 3 2
4 2 3 4 4 4 5 6 6 6 6 6 6 6 6 6 6 6 5 8 9 7 8 10 10 8 6 7 5 6 7 6 6 7 6 4 2 2 2 2 4 2 1 1
3 3 5 5 6 6 5 5 5 5 5 5 5 6 7 5 5 6 7 7 7 9 10 10 7 5 5 5 5 5 5 3 5 5 2 0 1 1 0 -0 1 1 -0 0
2 4 5 6 5 5 4 5 5 5 6 5 7 6 6 6 7 6 6 9 9 10 8 8 7 6 5 5 3 3 3 4 5 5 3 1 0 1 -0 -1 -1 -1 -0 -1
4 4 4 3 4 4 5 5 5 6 5 6 7 6 7 8 8 8 10 9 9 7 7 6 6 5 5 4 3 2 2 4 4 4 2 1 0 0 3 2 0 0 -1 -2

GFSNW_925_temp_180.txt.gz
Temp
3 3 3 4 4 5 6 8 8 9 9 8 10 10 12 13 14 15 16 16 15 15 15 15 15 16 18 20 20 18 20 18 16 17 20 21 21 20 20 17 17 17 16 17
3 3 3 3 4 5 6 8 9 8 8 8 9 11 12 13 13 14 14 14 15 15 14 12 14 15 17 18 18 17 18 16 14 14 17 19 19 17 15 16 16 12 13 14
3 3 3 3 3 4 5 7 7 8 8 9 9 10 11 11 13 13 13 13 14 13 13 14 13 12 15 16 16 15 15 14 14 12 14 16 15 15 15 15 13 12 14 16
2 3 3 3 3 3 4 7 7 9 8 7 8 9 10 10 10 13 13 10 11 12 11 12 12 13 12 14 15 15 14 12 14 14 15 15 15 15 15 15 15 11 12 14
2 2 2 3 3 3 5 6 6 8 8 9 9 9 8 9 10 11 11 10 10 7 7 9 9 11 9 10 12 13 15 13 12 11 13 14 13 14 15 15 15 15 15 15
2 2 2 2 3 3 6 7 8 6 6 7 8 9 10 10 11 8 10 10 9 9 8 7 8 9 11 11 10 10 11 9 11 11 13 13 12 13 14 15 16 16 15 17
2 2 2 2 2 3 5 6 5 5 6 8 9 10 10 10 10 10 9 9 7 9 10 9 10 10 11 11 11 12 11 12 10 10 12 10 14 16 16 16 16 17 17 18
2 2 2 2 2 2 3 5 4 4 5 8 9 9 10 10 11 10 9 8 8 9 7 6 8 9 10 11 12 13 13 12 11 10 11 13 15 17 17 15 15 15 17 18
2 2 2 2 2 2 2 4 5 3 3 5 8 8 7 8 9 9 11 12 10 9 6 6 7 9 11 12 14 16 14 13 11 11 11 11 15 17 17 16 13 16 15 15
2 2 2 2 2 2 2 4 4 4 3 6 7 7 6 8 7 6 8 7 8 8 6 7 7 9 12 11 12 13 12 11 10 11 10 13 16 17 16 12 14 16 16 16
2 2 2 2 2 2 2 3 4 4 3 5 6 7 6 6 5 6 7 6 7 7 6 7 8 9 10 12 13 13 13 10 11 11 11 11 10 14 9 15 16 14 12 13
2 2 2 2 1 1 2 2 4 4 3 4 5 5 6 6 7 6 6 6 6 4 5 5 5 6 7 7 10 12 12 14 13 12 13 11 11 13 15 16 16 15 15 15
2 2 2 1 1 1 1 2 3 2 3 4 5 5 6 7 7 7 5 7 7 7 6 5 6 6 8 7 10 11 10 10 10 14 15 16 16 16 16 16 16 14 15 15
1 1 2 2 1 1 1 2 2 2 3 3 6 7 7 8 8 8 8 8 8 8 7 5 5 6 9 7 6 8 8 12 13 13 14 15 15 15 16 16 16 15 15 14
1 1 2 2 2 1 1 2 2 2 2 3 4 6 6 7 7 7 8 8 8 7 6 5 6 8 8 9 10 10 14 14 13 12 15 14 13 15 15 15 15 15 14 14
1 1 2 1 1 1 1 2 3 2 2 2 4 8 8 8 8 8 8 8 7 6 5 6 7 8 7 6 8 14 15 16 15 14 15 15 15 15 15 15 15 15 15 14
1 1 1 1 1 1 2 3 2 2 1 3 4 7 8 8 9 8 7 7 6 6 5 5 7 8 7 6 8 12 14 15 15 15 15 14 15 14 15 15 15 14 14 14
1 1 1 2 1 1 2 3 3 2 3 4 3 6 8 8 6 5 5 4 4 4 5 6 7 8 8 8 11 14 15 15 14 14 15 15 15 15 15 15 15 14 14 14
1 1 1 1 2 2 3 3 2 2 1 2 4 5 5 7 5 4 3 3 5 5 5 6 6 7 9 12 13 13 14 12 12 12 13 14 14 14 14 14 14 14 14 14
1 2 2 1 2 2 2 1 2 2 3 3 3 6 5 6 5 4 4 5 6 7 9 11 10 10 12 13 13 13 11 10 10 10 11 12 13 13 13 14 14 14 14 14
3 2 1 2 3 2 4 3 3 4 3 4 5 6 5 6 4 4 7 8 9 8 10 10 10 10 13 12 10 8 6 7 9 10 11 11 12 12 12 12 12 11 10 9
4 4 3 3 4 3 3 4 5 5 5 7 6 7 8 8 7 6 8 7 7 7 10 9 9 10 11 9 7 6 5 6 9 10 10 10 11 10 11 9 9 7 5 3
4 4 3 2 3 3 4 4 6 5 6 5 6 6 8 7 7 7 7 6 7 10 8 9 8 7 9 8 5 6 6 7 7 8 7 7 7 4 5 7 6 3 2 1
3 2 2 3 4 4 4 4 4 5 6 7 7 6 6 7 7 6 6 8 9 8 8 9 8 7 6 6 6 6 6 5 4 6 4 1 1 1 1 1 2 2 1 1
3 4 4 4 5 6 6 6 6 6 6 6 7 7 7 6 6 6 7 7 7 9 10 7 7 6 5 5 5 4 4 3 4 5 2 0 0 1 0 0 1 1 1 1
2 3 4 6 6 5 5 5 6 7 7 6 7 7 6 6 7 7 7 9 9 8 6 7 7 6 6 5 4 3 2 3 4 4 4 1 0 1 -0 -1 -0 -1 -0 -0
4 4 5 4 4 4 4 5 6 7 7 6 7 6 7 9 7 7 9 8 6 6 7 6 4 3 3 4 3 2 2 3 3 3 2 1 1 1 2 2 1 -0 -1 -1

GFSNW_925_temp_183.txt.gz
Temp
4 4 4 4 4 5 6 7 6 9 9 8 8 8 11 13 13 13 13 13 13 13 13 13 13 13 14 16 15 14 15 15 13 15 17 18 17 17 17 13 12 12 11 12
3 3 3 3 3 4 5 6 7 9 9 7 7 9 10 11 11 11 12 12 13 13 12 11 12 12 14 14 14 13 13 12 12 13 14 15 16 17 16 14 12 11 11 12
2 2 3 3 3 3 4 5 5 6 6 7 7 7 8 9 11 11 12 12 12 11 10 11 10 12 13 14 14 13 13 12 12 10 12 13 12 14 15 14 10 10 11 11
3 3 3 3 3 4 5 4 4 7 4 5 6 7 8 8 8 10 11 11 10 10 8 8 8 9 9 10 13 13 12 9 10 10 12 13 13 13 13 13 13 10 10 11
2 2 3 3 3 4 4 3 3 5 5 6 6 6 7 8 9 9 9 9 8 7 7 8 7 7 7 8 10 11 10 9 10 9 11 12 11 12 12 13 13 13 14 13
2 2 2 3 3 3 5 6 6 4 4 5 4 4 7 8 9 7 8 6 6 6 7 6 7 7 7 7 6 9 9 8 9 10 10 11 10 10 12 12 13 14 13 14
2 2 2 2 2 3 3 4 4 2 2 5 6 7 8 8 8 7 9 9 7 8 8 6 7 7 8 8 9 10 9 9 9 9 10 9 12 14 13 13 14 14 15 14
2 2 2 2 2 2 2 3 4 1 1 4 5 6 7 6 6 6 7 8 8 8 6 6 6 7 9 9 10 10 10 9 9 9 10 11 12 14 14 13 11 13 12 13
2 2 2 2 2 2 2 3 4 3 1 1 6 3 5 4 4 4 6 8 6 7 5 5 5 7 8 8 10 11 11 10 9 9 9 9 13 15 16 14 10 13 12 12
2 2 2 2 2 2 2 2 4 4 -0 3 4 3 3 4 4 3 4 4 5 6 1 3 6 6 9 8 9 10 9 8 8 9 9 10 11 11 14 10 10 10 11 11
2 2 2 2 2 2 2 2 3 3 0 2 4 4 3 3 4 3 4 3 4 4 4 4 5 5 5 6 8 7 8 8 7 8 8 9 10 10 10 10 9 7 11 12
2 2 2 2 2 2 1 1 2 3 2 1 3 3 4 4 4 3 3 4 4 4 4 4 4 5 5 5 4 9 7 9 7 7 8 10 9 10 10 10 10 11 10 12
2 2 2 2 2 1 1 1 2 2 0 1 2 3 5 5 5 5 3 3 5 5 4 3 3 4 5 5 6 7 7 8 6 9 10 11 10 11 12 11 13 13 13 12
2 2 2 2 2 1 1 1 2 2 1 -2 2 5 5 6 6 6 6 5 6 5 4 1 4 4 6 5 6 6 7 6 8 7 8 12 13 12 13 13 13 13 14 12
1 1 1 1 2 1 1 1 1 2 1 -2 1 3 4 5 5 5 6 6 4 3 3 3 4 5 5 6 6 6 9 9 7 8 11 11 11 12 12 13 13 14 12 12
-0 1 1 1 2 1 1 0 2 2 2 1 1 4 5 6 7 6 5 5 4 3 4 3 4 7 5 4 4 10 10 10 11 10 11 12 11 12 13 13 12 13 12 13
-0 1 1 2 2 1 1 0 2 2 1 1 1 2 6 7 7 3 3 5 4 3 4 4 5 6 6 5 5 9 9 9 10 11 10 10 11 11 12 13 12 13 13 12
1 1 1 2 1 1 1 2 3 3 2 2 1 2 4 6 3 3 2 2 4 3 3 4 5 6 4 4 8 9 10 11 10 10 10 10 10 11 12 13 12 12 12 11
1 1 1 1 1 1 2 3 2 2 2 -0 0 2 1 5 3 3 3 3 4 3 3 4 5 5 5 8 9 9 8 7 8 9 9 9 10 10 11 12 13 11 11 11
1 1 1 -3 2 3 3 1 1 1 1 1 0 3 2 4 3 3 2 3 4 5 5 5 4 5 8 10 7 6 6 6 7 7 7 8 8 9 9 11 11 9 9 8
2 1 -1 2 2 2 1 1 -1 0 1 1 2 3 3 4 3 3 2 4 4 6 7 6 6 6 7 7 6 6 6 6 7 8 8 8 7 7 7 7 6 6 6 5
4 3 2 2 2 1 1 2 3 3 4 5 3 4 5 4 5 3 4 5 3 5 5 4 5 6 6 6 5 4 5 6 6 7 6 5 6 5 7 6 5 3 1 1
3 3 2 1 1 1 2 2 4 4 4 3 4 4 4 4 3 4 5 4 2 4 2 3 5 7 6 5 3 5 5 4 4 5 3 2 3 3 3 3 1 1 0 0
2 2 1 2 3 2 3 3 3 2 3 3 4 4 5 4 4 3 4 4 4 3 5 7 5 5 5 5 4 4 3 2 2 3 1 0 0 0 0 1 1 1 1 1
2 2 3 3 3 3 3 2 3 4 4 3 3 4 4 3 3 3 5 5 5 6 5 5 4 5 4 4 4 3 2 1 2 2 1 -1 -0 -0 -0 -0 1 1 1 1
1 1 1 2 1 2 2 3 2 4 3 4 2 3 4 3 4 5 5 6 6 5 4 2 3 3 2 2 2 2 1 1 1 2 1 1 0 -0 -0 -0 -1 -1 0 0
2 3 3 4 3 2 1 3 1 3 4 4 2 4 6 3 5 6 6 5 4 4 3 3 2 2 2 1 1 0 1 1 2 2 1 0 0 1 0 -0 -0 -1 -1 -1

GFSNW_925_temp_189.txt.gz
Temp
5 5 5 5 5 5 6 6 5 8 8 6 6 7 9 9 8 9 8 10 11 11 11 9 10 11 12 13 12 11 12 12 10 11 14 14 14 13 13 12 12 14 13 12
5 4 4 4 4 5 6 4 6 7 8 7 7 8 8 8 8 8 7 8 11 10 9 7 8 10 11 11 11 11 11 9 9 10 11 13 12 13 13 13 12 11 10 11
3 3 3 4 5 5 6 4 4 5 6 6 6 6 7 7 8 9 10 9 9 8 7 8 7 8 10 10 9 10 10 8 8 9 9 10 10 11 11 12 9 10 10 12
3 3 4 4 5 5 6 4 5 6 5 5 6 6 6 7 7 8 9 8 8 7 5 5 6 7 7 8 9 8 8 7 8 8 9 10 10 10 10 10 10 9 10 9
2 2 2 3 3 4 4 3 3 4 4 6 6 6 5 7 7 7 7 6 6 6 5 6 5 6 5 6 7 7 7 6 7 5 8 9 9 10 10 10 10 10 11 11
2 2 2 2 3 3 3 3 4 3 3 4 4 4 5 6 6 5 6 5 4 4 5 5 5 6 6 7 6 6 6 6 6 6 8 8 8 9 9 10 11 11 10 11
2 2 2 2 2 3 3 3 3 2 2 4 5 5 5 5 4 4 5 5 4 6 5 4 4 5 5 6 6 6 6 6 6 6 7 6 10 11 11 10 11 11 11 11
2 2 2 2 2 3 3 3 2 -0 -0 3 4 4 4 4 3 3 4 4 5 3 3 1 2 5 6 6 7 7 6 6 6 6 8 9 10 12 11 10 10 10 10 10
2 2 2 2 2 2 3 3 3 0 -1 1 3 3 3 1 1 1 3 4 5 3 -1 -0 1 3 6 6 6 8 8 6 6 7 8 8 10 11 11 11 9 9 9 9
2 2 2 2 2 2 2 2 2 2 -2 1 1 1 2 2 1 -1 1 2 2 3 0 3 3 3 5 4 5 7 6 6 6 6 7 8 10 10 11 8 9 9 9 9
2 2 2 2 2 2 2 2 2 2 -1 0 2 2 1 1 0 -2 0 -0 -0 1 -1 0 1 1 5 4 6 6 5 5 5 5 6 6 6 7 8 7 9 8 9 9
2 2 2 2 2 2 2 1 1 1 1 -0 2 2 3 2 3 -0 -1 1 0 0 -2 -3 0 1 3 3 2 6 4 5 5 4 5 7 5 6 8 9 8 8 8 9
2 2 2 2 2 2 2 1 1 1 -2 -2 -1 1 4 3 3 2 -1 -1 1 1 1 -1 2 1 1 2 4 4 6 7 4 4 6 5 5 7 8 9 8 8 7 7
2 2 2 2 2 1 1 1 1 1 -1 -1 -1 2 2 5 4 3 2 2 2 1 0 2 2 1 2 1 2 3 4 5 4 4 5 5 8 8 9 9 9 8 8 8
2 2 1 2 2 2 1 1 1 1 -0 -5 -3 1 3 3 2 3 2 1 0 -1 1 2 1 1 2 3 4 4 6 4 5 5 6 6 7 8 8 9 9 9 9 9
1 1 1 1 1 1 1 -2 1 1 1 -2 -1 1 0 3 3 2 1 1 0 -1 -0 0 1 3 3 3 3 7 7 7 8 4 5 5 7 7 8 8 8 8 7 7
1 1 1 0 0 1 1 -1 2 1 0 -2 -1 -1 1 3 4 0 1 1 -1 -0 -0 0 3 3 3 2 3 6 7 7 5 6 7 6 7 6 7 7 7 7 7 7
1 0 -0 -0 1 1 1 2 1 1 1 -1 -1 0 0 3 1 -0 -1 1 -0 1 0 2 2 2 2 3 6 7 7 6 6 7 7 7 7 7 6 6 6 7 7 8
1 1 0 0 1 -0 1 2 2 1 1 -2 -1 1 -0 2 2 1 1 2 3 1 1 2 3 3 4 5 6 5 6 5 5 6 6 6 6 6 6 5 5 4 5 5
1 1 1 -6 1 2 1 1 0 -0 0 -0 1 1 1 2 2 1 1 1 2 4 3 2 3 3 5 6 5 6 4 4 4 5 5 4 4 5 5 5 4 2 2 2
2 -1 -3 1 1 1 -1 -1 0 -0 0 0 1 1 1 1 1 2 2 2 2 4 4 4 4 5 5 5 4 4 3 3 3 4 3 2 3 4 4 4 2 2 1 1
2 1 1 1 1 0 1 -0 0 1 2 2 1 2 1 1 2 2 2 2 1 4 4 4 5 5 5 5 4 3 3 3 3 3 2 1 2 2 2 3 2 1 1 0
2 1 1 1 -2 -0 -0 -2 2 2 2 2 3 3 3 2 2 2 3 2 1 2 -0 3 4 4 4 4 3 3 3 2 2 2 2 1 -0 1 1 1 1 0 1 0
0 1 -3 1 -5 -1 -0 2 2 2 1 2 2 3 4 3 3 3 3 3 2 1 2 5 4 4 3 3 2 1 1 0 1 1 1 0 -0 -1 -0 -0 -1 -0 -0 0
1 1 -2 -2 -1 -2 1 1 1 1 2 3 2 2 3 3 2 1 2 2 2 4 4 3 2 3 2 2 2 0 1 0 1 1 0 0 -0 -1 -2 -0 -1 -1 -1 0
1 1 1 -0 1 -3 -1 -1 2 2 1 -0 0 3 2 1 2 3 2 5 4 3 2 2 2 2 2 1 0 0 0 0 1 1 1 1 0 -0 -1 -1 0 -1 -2 -1
1 1 -2 -2 -3 -2 -2 2 2 2 1 -2 -1 3 3 3 4 3 4 4 3 2 2 1 1 1 1 0 0 -0 0 1 1 1 1 1 2 2 0 1 1 -0 -2 -3